Change the Weather History Date:

Thursday, August 29, 2013

  Actual Average Record
Temperature  
Mean Temperature 88 °F -  
Max Temperature 98 °F 86 °F 98 °F (2012)
Min Temperature 78 °F 67 °F 59 °F (2004)
Cooling Degree Days 22    
Growing Degree Days 38 (Base 50)    
Moisture  
Dew Point 69 °F    
Average Humidity 56    
Maximum Humidity 74    
Minimum Humidity 36    
Precipitation  
Precipitation 0.00 in - - ()
Sea Level Pressure  
Sea Level Pressure 29.96 in    
Wind  
Wind Speed 6 mph (SSW)    
Max Wind Speed 13 mph    
Max Gust Speed 20 mph    
Visibility 10 miles    
Events      
Averages and records for this station are not official NWS values.
T = Trace of Precipitation, MM = Missing Value Source: NWS Daily Summary

Daily Weather History Graph

Daily Weather History Graph

Search for Another Location

Airport or City:

Trip Planner

Search our weather history database for the weather conditions in past years. The results will help you decide how hot, cold, wet, or windy it might be!

Date:

Astronomy

Aug. 29, 2013 Rise Set
Actual Time 6:44 AM CDT 7:53 PM CDT
Civil Twilight 6:17 AM CDT 8:20 PM CDT
Nautical Twilight 5:44 AM CDT 8:53 PM CDT
Astronomical Twilight 5:09 AM CDT 9:27 PM CDT
Moon 12:38 AM CDT (8/29) 3:21 PM CDT (8/29)
Length of Visible Light 14h 03m
Length of Day
13h 08m
Last Quarter, 38% of the Moon is Illuminated
Aug 29
Last Quarter
Sep 5
New
Sep 12
First Quarter
Sep 19
Full
Sep 26
Last Quarter

Hourly Weather History & Observations

Time (CDT) Temp. Heat Index Dew Point Humidity Pressure Visibility Wind Dir Wind Speed Gust Speed Precip Events Conditions
12:54 AM 81.0 °F 84.1 °F 69.1 °F 67% 30.00 in 10.0 mi SSW 5.8 mph - N/A   Clear
1:54 AM 80.1 °F 82.9 °F 69.1 °F 69% 29.99 in 10.0 mi SSW 4.6 mph - N/A   Clear
2:54 AM 80.1 °F 82.9 °F 69.1 °F 69% 30.00 in 10.0 mi Calm Calm - N/A   Clear
3:54 AM 79.0 °F - 69.1 °F 72% 29.99 in 10.0 mi SSW 4.6 mph - N/A   Clear
4:54 AM 78.1 °F - 69.1 °F 74% 30.00 in 10.0 mi SSW 4.6 mph - N/A   Clear
5:54 AM 78.1 °F - 69.1 °F 74% 30.00 in 10.0 mi SSW 3.5 mph - N/A   Clear
6:54 AM 78.1 °F - 69.1 °F 74% 30.01 in 10.0 mi Calm Calm - N/A   Clear
7:54 AM 81.0 °F 84.4 °F 70.0 °F 69% 30.01 in 10.0 mi South 3.5 mph - N/A   Clear
8:54 AM 84.0 °F 88.4 °F 70.0 °F 63% 30.01 in 10.0 mi South 5.8 mph - N/A   Partly Cloudy
9:54 AM 87.1 °F 92.8 °F 71.1 °F 59% 30.01 in 10.0 mi South 9.2 mph - N/A   Partly Cloudy
10:54 AM 91.0 °F 97.6 °F 71.1 °F 52% 30.01 in 10.0 mi SSW 8.1 mph - N/A   Clear
11:54 AM 93.0 °F 99.0 °F 70.0 °F 47% 29.99 in 10.0 mi SSW 6.9 mph 17.3 mph N/A   Scattered Clouds
12:54 PM 96.1 °F 101.6 °F 69.1 °F 41% 29.98 in 10.0 mi Variable 6.9 mph - N/A   Partly Cloudy
1:54 PM 95.0 °F 99.5 °F 68.0 °F 41% 29.96 in 10.0 mi SSW 12.7 mph 16.1 mph N/A   Clear
2:54 PM 96.1 °F 101.0 °F 68.0 °F 40% 29.94 in 10.0 mi SSW 10.4 mph - N/A   Clear
3:54 PM 97.0 °F 102.2 °F 68.0 °F 39% 29.93 in 10.0 mi South 8.1 mph 19.6 mph N/A   Clear
4:54 PM 96.1 °F 99.9 °F 66.9 °F 38% 29.92 in 10.0 mi SSW 12.7 mph - N/A   Clear
5:54 PM 96.1 °F 98.8 °F 64.9 °F 36% 29.91 in 10.0 mi SSW 11.5 mph - N/A   Clear
6:54 PM 93.0 °F 97.4 °F 68.0 °F 44% 29.91 in 10.0 mi South 9.2 mph - N/A   Clear
7:54 PM 91.0 °F 94.3 °F 66.9 °F 45% 29.92 in 10.0 mi SSW 9.2 mph - N/A   Clear
8:54 PM 88.0 °F 92.1 °F 69.1 °F 53% 29.92 in 10.0 mi South 6.9 mph - N/A   Clear
9:54 PM 86.0 °F 90.7 °F 70.0 °F 59% 29.92 in 10.0 mi SSW 3.5 mph - N/A   Clear
10:54 PM 84.0 °F 88.4 °F 70.0 °F 63% 29.91 in 10.0 mi SSW 4.6 mph - N/A   Clear
11:54 PM 84.9 °F 89.4 °F 70.0 °F 61% 29.91 in 10.0 mi SSW 8.1 mph - N/A   Clear